STARLINK-4092, 52838

Orbit data source: Space-Track

STARLINK-4092, 52838 is a payload satellite owned by SpaceX/Seattle (US) in LEO that was launched on Fri, 17 Jun 2022 UTC via an FALCON 9 launch vehicle from the Air Force Eastern Test Range (AFETR). Payload-class satellites include a variety of spacecraft equipped with specific instruments for various scientific and technological missions. These include communications satellites like Starlink; space stations such as the ISS; scientific satellites like the Hubble; Earth observation satellites from companies like Planet Labs, Umbra, and HawkEye 360; GPS; miniature CubeSats for education and research; and military/defense satellites.

Loading next visibility...
Identifier
52838, 2022-062J
Orbit
LEO
Country
Flag of USUS
Related business
Manufacturer
SpaceX/Seattle
Mission
Operational Commercial Communications
Bus & Motor
STARLINK, Unknown motor
Mass
297 kg wet, ~275 kg dry
Launch date (UTC)
2022-06-17 (3 years ago)
Launch vehicle
FALCON 9
Launch site
Air Force Eastern Test Range (AFETR)
Object type
Payload
Rocket body
Debris
Shape & HBR
Box + 1 Pan, 10.1 m
Radar Cross Section
13.562 m², Large (>1 m²)

Expand to show TLE details & history
Last TLE update: 19 hours ago

TLE from 19 hours ago
0 STARLINK-4092
1 52838U 22062J   25348.89658786  .00001629  00000-0  12046-3 0  9991
2 52838  53.2193  54.7616 0001434  94.7453 265.3703 15.08835078192984
Epoch: 2025-12-14T21:31Z
TLE epoch observation values (Epoch: 2025-12-14T21:31:05.191Z)
Latitude
Longitude
8.18705°
Altitude
540.736 km
Speed
7.593 km/s
True Right ascension
03h 39m 02s
True Declination
0° 00' 00"
Sunlit
Object was in full shadow at epoch
Visualization orbit readout
Latitude
Unknown
Longitude
Unknown
Altitude
Unknown
Speed
Unknown
Apparent Right ascension
Unknown
Apparent Declination
Unknown
Sunlit
N/A
Visualization observer readout
Local Sidereal Time
15:09:07
Azimuth
Unknown
Elevation
Unknown
Doppler factor
Unknown
Orbital elements
Apogee altitude
540.995 km
Perigee altitude
539.011 km
Semi-major axis
6,918.14 km
Eccentricity
0.00014
Inclination
53.2193°
RAAN
54.7616°
Arg. of periapsis
94.7453°
True anomaly
265.35392°
Mean anomaly
265.3703°
Eccentric anomaly
265.36211°
Mean motion
3.77189 °/min
Orbital period
95.44 mins
BSTAR
0.00012046
Loading maneuver chart data...
Computing Atmospheric mass density...
Loading historical data...
Loading historical data...
Loading historical data...
Loading historical data...
Loading historical data...
Loading historical data...
Loading historical data...

Documentation

Showing up to 5 results
|